����������;��������(kVARh)
2017-09-25 00:00;2,6
2017-09-25 00:15;6,4
2017-09-25 00:30;4,45
2017-09-25 00:45;11,85
2017-09-25 01:00;15,15
2017-09-25 01:15;11
2017-09-25 01:30;8,5
2017-09-25 01:45;12,4
2017-09-25 02:00;12,5
2017-09-25 02:15;11,8
2017-09-25 02:30;11,9
2017-09-25 02:45;12,4
2017-09-25 03:00;13
2017-09-25 03:15;12,05
2017-09-25 03:30;9,5
2017-09-25 03:45;11,8
2017-09-25 04:00;11,65
2017-09-25 04:15;13,8
2017-09-25 04:30;11,85
2017-09-25 04:45;13,55
2017-09-25 05:00;13,55
2017-09-25 05:15;12,1
2017-09-25 05:30;9,55
2017-09-25 05:45;12,65
2017-09-25 06:00;12,8
2017-09-25 06:15;10,25
2017-09-25 06:30;9,4
2017-09-25 06:45;11,55
2017-09-25 07:00;11,45
2017-09-25 07:15;10,45
2017-09-25 07:30;44,25
2017-09-25 07:45;46,55
2017-09-25 08:00;40
2017-09-25 08:15;29
2017-09-25 08:30;34,6
2017-09-25 08:45;52
2017-09-25 09:00;51,3
2017-09-25 09:15;45,1
2017-09-25 09:30;50,65
2017-09-25 09:45;54,45
2017-09-25 10:00;51,85
2017-09-25 10:15;57,9
2017-09-25 10:30;64,9
2017-09-25 10:45;60,3
2017-09-25 11:00;78,65
2017-09-25 11:15;76,05
2017-09-25 11:30;73,3
2017-09-25 11:45;72,15
2017-09-25 12:00;77,45
2017-09-25 12:15;77,65
2017-09-25 12:30;79,15
2017-09-25 12:45;75,7
2017-09-25 13:00;64,8
2017-09-25 13:15;63,95
2017-09-25 13:30;62,35
2017-09-25 13:45;70,15
2017-09-25 14:00;66,7
2017-09-25 14:15;61,3
2017-09-25 14:30;67,45
2017-09-25 14:45;67,4
2017-09-25 15:00;61,45
2017-09-25 15:15;60,25
2017-09-25 15:30;62,8
2017-09-25 15:45;59,9
2017-09-25 16:00;60,15
2017-09-25 16:15;64,85
2017-09-25 16:30;50,7
2017-09-25 16:45;52,9
2017-09-25 17:00;49,75
2017-09-25 17:15;44,55
2017-09-25 17:30;45,1
2017-09-25 17:45;48,3
2017-09-25 18:00;42,45
2017-09-25 18:15;43,4
2017-09-25 18:30;47,15
2017-09-25 18:45;37,8
2017-09-25 19:00;36,8
2017-09-25 19:15;32,7
2017-09-25 19:30;31,25
2017-09-25 19:45;26,75
2017-09-25 20:00;26,6
2017-09-25 20:15;27,2
2017-09-25 20:30;25,5
2017-09-25 20:45;22,8
2017-09-25 21:00;25,4
2017-09-25 21:15;25,3
2017-09-25 21:30;24,3
2017-09-25 21:45;20,95
2017-09-25 22:00;15,9
2017-09-25 22:15;17,65
2017-09-25 22:30;17,45
2017-09-25 22:45;17,95
2017-09-25 23:00;22,2
2017-09-25 23:15;13,5
2017-09-25 23:30;12,6
2017-09-25 23:45;12,65
2017-09-26 00:00;11,35
2017-09-26 00:15;9,2
2017-09-26 00:30;8,25
2017-09-26 00:45;6,75
2017-09-26 01:00;7,45
2017-09-26 01:15;7,65
2017-09-26 01:30;5,4
2017-09-26 01:45;4,1
2017-09-26 02:00;4,25
2017-09-26 02:15;3,35
2017-09-26 02:30;3,6
2017-09-26 02:45;5,4
2017-09-26 03:00;4,4
2017-09-26 03:15;4,1
2017-09-26 03:30;6,4
2017-09-26 03:45;4,85
2017-09-26 04:00;5,45
2017-09-26 04:15;6,6
2017-09-26 04:30;5,95
2017-09-26 04:45;5
2017-09-26 05:00;6,45
2017-09-26 05:15;5,15
2017-09-26 05:30;3,05
2017-09-26 05:45;3,6
2017-09-26 06:00;3,2
2017-09-26 06:15;2,45
2017-09-26 06:30;5,65
2017-09-26 06:45;11,5
2017-09-26 07:00;5
2017-09-26 07:15;6,5
2017-09-26 07:30;27,2
2017-09-26 07:45;25
2017-09-26 08:00;13,65
2017-09-26 08:15;9,4
2017-09-26 08:30;20,5
2017-09-26 08:45;35,7
2017-09-26 09:00;39,8
2017-09-26 09:15;25,85
2017-09-26 09:30;40,35
2017-09-26 09:45;40,9
2017-09-26 10:00;39,9
2017-09-26 10:15;38,9
2017-09-26 10:30;51,15
2017-09-26 10:45;54,9
2017-09-26 11:00;55,85
2017-09-26 11:15;62,05
2017-09-26 11:30;64,85
2017-09-26 11:45;65,55
2017-09-26 12:00;66
2017-09-26 12:15;82
2017-09-26 12:30;88,5
2017-09-26 12:45;88,9
2017-09-26 13:00;78,1
2017-09-26 13:15;70,05
2017-09-26 13:30;70,45
2017-09-26 13:45;98,2
2017-09-26 14:00;100
2017-09-26 14:15;83,35
2017-09-26 14:30;81,8
2017-09-26 14:45;86,45
2017-09-26 15:00;83,8
2017-09-26 15:15;80
2017-09-26 15:30;75,5
2017-09-26 15:45;75,5
2017-09-26 16:00;77,5
2017-09-26 16:15;77,3
2017-09-26 16:30;72,8
2017-09-26 16:45;74,4
2017-09-26 17:00;69,85
2017-09-26 17:15;69,9
2017-09-26 17:30;70
2017-09-26 17:45;75,9
2017-09-26 18:00;59
2017-09-26 18:15;59,1
2017-09-26 18:30;68,3
2017-09-26 18:45;47,85
2017-09-26 19:00;45,65
2017-09-26 19:15;41,7
2017-09-26 19:30;36,8
2017-09-26 19:45;33,25
2017-09-26 20:00;32,8
2017-09-26 20:15;33,7
2017-09-26 20:30;32,35
2017-09-26 20:45;30,65
2017-09-26 21:00;30,45
2017-09-26 21:15;32,95
2017-09-26 21:30;31,95
2017-09-26 21:45;29,9
2017-09-26 22:00;23,15
2017-09-26 22:15;23,65
2017-09-26 22:30;21,65
2017-09-26 22:45;13,6
2017-09-26 23:00;12,6
2017-09-26 23:15;2,25
2017-09-26 23:30;2,55
2017-09-26 23:45;2,6
2017-09-27 00:00;0,85
2017-09-27 00:15;2,65
2017-09-27 00:30;2,7
2017-09-27 00:45;4,2
2017-09-27 01:00;5,5
2017-09-27 01:15;6,1
2017-09-27 01:30;5,35
2017-09-27 01:45;6,85
2017-09-27 02:00;6,1
2017-09-27 02:15;7,75
2017-09-27 02:30;6,8
2017-09-27 02:45;7,75
2017-09-27 03:00;8
2017-09-27 03:15;6,45
2017-09-27 03:30;8,45
2017-09-27 03:45;7,3
2017-09-27 04:00;7,2
2017-09-27 04:15;6,6
2017-09-27 04:30;6,4
2017-09-27 04:45;7,15
2017-09-27 05:00;6,45
2017-09-27 05:15;7,3
2017-09-27 05:30;6,6
2017-09-27 05:45;6,25
2017-09-27 06:00;7,2
2017-09-27 06:15;8,6
2017-09-27 06:30;22,15
2017-09-27 06:45;22,1
2017-09-27 07:00;18,2
2017-09-27 07:15;18,75
2017-09-27 07:30;32,95
2017-09-27 07:45;25,95
2017-09-27 08:00;21,35
2017-09-27 08:15;26,65
2017-09-27 08:30;31,05
2017-09-27 08:45;52,45
2017-09-27 09:00;54,35
2017-09-27 09:15;39,05
2017-09-27 09:30;40,85
2017-09-27 09:45;50,7
2017-09-27 10:00;53,55
2017-09-27 10:15;60,95
2017-09-27 10:30;72,2
2017-09-27 10:45;76,05
2017-09-27 11:00;80,1
2017-09-27 11:15;82,85
2017-09-27 11:30;82,1
2017-09-27 11:45;84,9
2017-09-27 12:00;87,45
2017-09-27 12:15;89,15
2017-09-27 12:30;86,15
2017-09-27 12:45;88,1
2017-09-27 13:00;78,6
2017-09-27 13:15;78,95
2017-09-27 13:30;74,9
2017-09-27 13:45;73,6
2017-09-27 14:00;78,3
2017-09-27 14:15;80,85
2017-09-27 14:30;78,55
2017-09-27 14:45;78
2017-09-27 15:00;74,1
2017-09-27 15:15;74,2
2017-09-27 15:30;77,6
2017-09-27 15:45;75,45
2017-09-27 16:00;76,35
2017-09-27 16:15;73,1
2017-09-27 16:30;60,9
2017-09-27 16:45;59,25
2017-09-27 17:00;56,75
2017-09-27 17:15;58,55
2017-09-27 17:30;51,15
2017-09-27 17:45;52,8
2017-09-27 18:00;52,1
2017-09-27 18:15;45,65
2017-09-27 18:30;41,95
2017-09-27 18:45;34,5
2017-09-27 19:00;32,2
2017-09-27 19:15;35,85
2017-09-27 19:30;30,8
2017-09-27 19:45;25,95
2017-09-27 20:00;17,65
2017-09-27 20:15;14,95
2017-09-27 20:30;21,9
2017-09-27 20:45;21,45
2017-09-27 21:00;20,15
2017-09-27 21:15;23,55
2017-09-27 21:30;24,15
2017-09-27 21:45;17,4
2017-09-27 22:00;16,4
2017-09-27 22:15;16,5
2017-09-27 22:30;10,9
2017-09-27 22:45;5,3
2017-09-27 23:00;3,95
2017-09-27 23:15;1,25
2017-09-27 23:30;0,5
2017-09-27 23:45;0,3
2017-09-28 00:00;1,1
2017-09-28 00:15;0,2
2017-09-28 00:30;0
2017-09-28 00:45;0,4
2017-09-28 01:00;0,5
2017-09-28 01:15;2,1
2017-09-28 01:30;0,9
2017-09-28 01:45;0,95
2017-09-28 02:00;1,25
2017-09-28 02:15;2,05
2017-09-28 02:30;1,5
2017-09-28 02:45;1,65
2017-09-28 03:00;1,25
2017-09-28 03:15;1,4
2017-09-28 03:30;3,5
2017-09-28 03:45;1,6
2017-09-28 04:00;2,35
2017-09-28 04:15;2,65
2017-09-28 04:30;2,3
2017-09-28 04:45;2,8
2017-09-28 05:00;1,4
2017-09-28 05:15;2,55
2017-09-28 05:30;2,15
2017-09-28 05:45;0,95
2017-09-28 06:00;2,9
2017-09-28 06:15;1,6
2017-09-28 06:30;9,1
2017-09-28 06:45;17,2
2017-09-28 07:00;9,65
2017-09-28 07:15;13
2017-09-28 07:30;33,5
2017-09-28 07:45;28,7
2017-09-28 08:00;18,25
2017-09-28 08:15;18,8
2017-09-28 08:30;22,1
2017-09-28 08:45;44,05
2017-09-28 09:00;44,5
2017-09-28 09:15;37,95
2017-09-28 09:30;45,2
2017-09-28 09:45;49,35
2017-09-28 10:00;47,9
2017-09-28 10:15;47,25
2017-09-28 10:30;49,3
2017-09-28 10:45;53,4
2017-09-28 11:00;60,3
2017-09-28 11:15;68,9
2017-09-28 11:30;67,8
2017-09-28 11:45;68,15
2017-09-28 12:00;62,45
2017-09-28 12:15;60,75
2017-09-28 12:30;62,4
2017-09-28 12:45;65,65
2017-09-28 13:00;63,8
2017-09-28 13:15;61,15
2017-09-28 13:30;64,65
2017-09-28 13:45;72,25
2017-09-28 14:00;74,55
2017-09-28 14:15;74,8
2017-09-28 14:30;73,55
2017-09-28 14:45;73,6
2017-09-28 15:00;72,25
2017-09-28 15:15;66
2017-09-28 15:30;64,9
2017-09-28 15:45;65,85
2017-09-28 16:00;61,45
2017-09-28 16:15;62,6
2017-09-28 16:30;59,5
2017-09-28 16:45;57,8
2017-09-28 17:00;50,55
2017-09-28 17:15;47,9
2017-09-28 17:30;45,55
2017-09-28 17:45;45,5
2017-09-28 18:00;42,65
2017-09-28 18:15;39,6
2017-09-28 18:30;37,75
2017-09-28 18:45;33,7
2017-09-28 19:00;31,6
2017-09-28 19:15;30,15
2017-09-28 19:30;26
2017-09-28 19:45;22,15
2017-09-28 20:00;22,8
2017-09-28 20:15;19,9
2017-09-28 20:30;20,1
2017-09-28 20:45;20,55
2017-09-28 21:00;21,45
2017-09-28 21:15;18,2
2017-09-28 21:30;17,05
2017-09-28 21:45;16,65
2017-09-28 22:00;14,35
2017-09-28 22:15;11,95
2017-09-28 22:30;11,15
2017-09-28 22:45;11,65
2017-09-28 23:00;12,85
2017-09-28 23:15;8,35
2017-09-28 23:30;5
2017-09-28 23:45;0,5
2017-09-29 00:00;0
2017-09-29 00:15;1
2017-09-29 00:30;1,7
2017-09-29 00:45;0,9
2017-09-29 01:00;2,3
2017-09-29 01:15;1,55
2017-09-29 01:30;0,35
2017-09-29 01:45;1,15
2017-09-29 02:00;1,35
2017-09-29 02:15;1,4
2017-09-29 02:30;0,6
2017-09-29 02:45;0,25
2017-09-29 03:00;3,3
2017-09-29 03:15;4,55
2017-09-29 03:30;4,4
2017-09-29 03:45;6
2017-09-29 04:00;5,3
2017-09-29 04:15;4,5
2017-09-29 04:30;4,85
2017-09-29 04:45;3,45
2017-09-29 05:00;4,6
2017-09-29 05:15;4,3
2017-09-29 05:30;5,15
2017-09-29 05:45;2,9
2017-09-29 06:00;6
2017-09-29 06:15;3,6
2017-09-29 06:30;2,05
2017-09-29 06:45;2,55
2017-09-29 07:00;6,25
2017-09-29 07:15;17,2
2017-09-29 07:30;25,55
2017-09-29 07:45;23,65
2017-09-29 08:00;19,7
2017-09-29 08:15;21
2017-09-29 08:30;26,6
2017-09-29 08:45;44,05
2017-09-29 09:00;38,1
2017-09-29 09:15;28,55
2017-09-29 09:30;32,95
2017-09-29 09:45;38,3
2017-09-29 10:00;44,45
2017-09-29 10:15;34,35
2017-09-29 10:30;37,5
2017-09-29 10:45;49,45
2017-09-29 11:00;46,35
2017-09-29 11:15;39,15
2017-09-29 11:30;37,1
2017-09-29 11:45;39,4
2017-09-29 12:00;42,6
2017-09-29 12:15;45,6
2017-09-29 12:30;46,1
2017-09-29 12:45;45,2
2017-09-29 13:00;48,3
2017-09-29 13:15;55,45
2017-09-29 13:30;57,35
2017-09-29 13:45;47,55
2017-09-29 14:00;52,15
2017-09-29 14:15;55
2017-09-29 14:30;63,75
2017-09-29 14:45;53,95
2017-09-29 15:00;54,95
2017-09-29 15:15;47,1
2017-09-29 15:30;51,3
2017-09-29 15:45;54,35
2017-09-29 16:00;46,45
2017-09-29 16:15;48,45
2017-09-29 16:30;48
2017-09-29 16:45;44,7
2017-09-29 17:00;47,95
2017-09-29 17:15;43,2
2017-09-29 17:30;44,05
2017-09-29 17:45;47,15
2017-09-29 18:00;46,9
2017-09-29 18:15;32,85
2017-09-29 18:30;31,95
2017-09-29 18:45;25,2
2017-09-29 19:00;25,6
2017-09-29 19:15;24,3
2017-09-29 19:30;19,35
2017-09-29 19:45;17,3
2017-09-29 20:00;15,5
2017-09-29 20:15;13,8
2017-09-29 20:30;12,55
2017-09-29 20:45;13,35
2017-09-29 21:00;14,6
2017-09-29 21:15;17,3
2017-09-29 21:30;18,15
2017-09-29 21:45;13,6
2017-09-29 22:00;13,15
2017-09-29 22:15;9,5
2017-09-29 22:30;9,7
2017-09-29 22:45;11,6
2017-09-29 23:00;7,8
2017-09-29 23:15;6,5
2017-09-29 23:30;1,25
2017-09-29 23:45;0,8
2017-09-30 00:00;0,75
2017-09-30 00:15;0,1
2017-09-30 00:30;0,05
2017-09-30 00:45;0
2017-09-30 01:00;0
2017-09-30 01:15;0,15
2017-09-30 01:30;0,25
2017-09-30 01:45;0,05
2017-09-30 02:00;0,3
2017-09-30 02:15;0
2017-09-30 02:30;0,15
2017-09-30 02:45;0,05
2017-09-30 03:00;0,1
2017-09-30 03:15;0,2
2017-09-30 03:30;0
2017-09-30 03:45;0
2017-09-30 04:00;0,15
2017-09-30 04:15;0,05
2017-09-30 04:30;0
2017-09-30 04:45;0,2
2017-09-30 05:00;0
2017-09-30 05:15;0,35
2017-09-30 05:30;0,05
2017-09-30 05:45;0
2017-09-30 06:00;0
2017-09-30 06:15;0,35
2017-09-30 06:30;0,2
2017-09-30 06:45;0
2017-09-30 07:00;0,1
2017-09-30 07:15;0
2017-09-30 07:30;0,15
2017-09-30 07:45;0,4
2017-09-30 08:00;1,55
2017-09-30 08:15;0,7
2017-09-30 08:30;0,85
2017-09-30 08:45;0,2
2017-09-30 09:00;0,65
2017-09-30 09:15;7,15
2017-09-30 09:30;11,3
2017-09-30 09:45;13,25
2017-09-30 10:00;11,55
2017-09-30 10:15;11,6
2017-09-30 10:30;10,85
2017-09-30 10:45;10,15
2017-09-30 11:00;12,55
2017-09-30 11:15;12,65
2017-09-30 11:30;12,35
2017-09-30 11:45;11,95
2017-09-30 12:00;13,4
2017-09-30 12:15;14,2
2017-09-30 12:30;13,5
2017-09-30 12:45;15,2
2017-09-30 13:00;14,85
2017-09-30 13:15;14,65
2017-09-30 13:30;13,2
2017-09-30 13:45;13,35
2017-09-30 14:00;14,4
2017-09-30 14:15;14,55
2017-09-30 14:30;16,4
2017-09-30 14:45;15,9
2017-09-30 15:00;17,15
2017-09-30 15:15;19,5
2017-09-30 15:30;17,75
2017-09-30 15:45;18,35
2017-09-30 16:00;17,2
2017-09-30 16:15;17,05
2017-09-30 16:30;16,85
2017-09-30 16:45;16,6
2017-09-30 17:00;18,2
2017-09-30 17:15;16,7
2017-09-30 17:30;17,6
2017-09-30 17:45;16,15
2017-09-30 18:00;15,8
2017-09-30 18:15;14,6
2017-09-30 18:30;16,05
2017-09-30 18:45;14,05
2017-09-30 19:00;15,15
2017-09-30 19:15;12,9
2017-09-30 19:30;9,25
2017-09-30 19:45;9,7
2017-09-30 20:00;7,95
2017-09-30 20:15;8,75
2017-09-30 20:30;8,4
2017-09-30 20:45;10,6
2017-09-30 21:00;10,55
2017-09-30 21:15;12,1
2017-09-30 21:30;9,85
2017-09-30 21:45;9,8
2017-09-30 22:00;10,15
2017-09-30 22:15;10,15
2017-09-30 22:30;12,25
2017-09-30 22:45;10,85
2017-09-30 23:00;12,85
2017-09-30 23:15;8,6
2017-09-30 23:30;4,55
2017-09-30 23:45;4,6
2017-10-01 00:00;4,2
2017-10-01 00:15;0,4
2017-10-01 00:30;0,3
2017-10-01 00:45;1,15
2017-10-01 01:00;0,8
2017-10-01 01:15;0,8
2017-10-01 01:30;1,15
2017-10-01 01:45;1,5
2017-10-01 02:00;1,9
2017-10-01 02:15;1,2
2017-10-01 02:30;4,35
2017-10-01 02:45;2,9
2017-10-01 03:00;1,85
2017-10-01 03:15;2,6
2017-10-01 03:30;2,5
2017-10-01 03:45;3,6
2017-10-01 04:00;3,6
2017-10-01 04:15;4,05
2017-10-01 04:30;3,25
2017-10-01 04:45;2,6
2017-10-01 05:00;2,7
2017-10-01 05:15;3,2
2017-10-01 05:30;5,3
2017-10-01 05:45;4,65
2017-10-01 06:00;3,95
2017-10-01 06:15;3,9
2017-10-01 06:30;5,5
2017-10-01 06:45;4
2017-10-01 07:00;2,95
2017-10-01 07:15;1,9
2017-10-01 07:30;2,1
2017-10-01 07:45;1,8
2017-10-01 08:00;2,35
2017-10-01 08:15;1,45
2017-10-01 08:30;0,7
2017-10-01 08:45;1,25
2017-10-01 09:00;3,6
2017-10-01 09:15;3,9
2017-10-01 09:30;2,3
2017-10-01 09:45;3,9
2017-10-01 10:00;6,5
2017-10-01 10:15;7,55
2017-10-01 10:30;7,4
2017-10-01 10:45;7,35
2017-10-01 11:00;6,9
2017-10-01 11:15;5,45
2017-10-01 11:30;4,9
2017-10-01 11:45;3,7
2017-10-01 12:00;6,8
2017-10-01 12:15;4
2017-10-01 12:30;4,45
2017-10-01 12:45;4,2
2017-10-01 13:00;4,95
2017-10-01 13:15;5,35
2017-10-01 13:30;4,2
2017-10-01 13:45;4,6
2017-10-01 14:00;5,6
2017-10-01 14:15;6,7
2017-10-01 14:30;8,35
2017-10-01 14:45;7,6
2017-10-01 15:00;6,9
2017-10-01 15:15;7,05
2017-10-01 15:30;7,1
2017-10-01 15:45;7,85
2017-10-01 16:00;5,95
2017-10-01 16:15;7,35
2017-10-01 16:30;6,5
2017-10-01 16:45;6,85
2017-10-01 17:00;9
2017-10-01 17:15;8,1
2017-10-01 17:30;9,15
2017-10-01 17:45;9,05
2017-10-01 18:00;7,55
2017-10-01 18:15;7
2017-10-01 18:30;6
2017-10-01 18:45;6,9
2017-10-01 19:00;4,85
2017-10-01 19:15;5,45
2017-10-01 19:30;5,55
2017-10-01 19:45;7,55
2017-10-01 20:00;7,1
2017-10-01 20:15;6,65
2017-10-01 20:30;8,15
2017-10-01 20:45;9,15
2017-10-01 21:00;9,2
2017-10-01 21:15;9,75
2017-10-01 21:30;10,45
2017-10-01 21:45;9,3
2017-10-01 22:00;11,05
2017-10-01 22:15;12,05
2017-10-01 22:30;12,1
2017-10-01 22:45;14,7
2017-10-01 23:00;12,9
2017-10-01 23:15;7,9
2017-10-01 23:30;8,55
2017-10-01 23:45;8,4

